Location: Arbon
(43.0005°N, 0.7472°E)
Time: 22:26:38
(UTC+00:00)

Altair - Pass Details

Date: 03 December 2020
Orbit: 1501 x 1682 km, 47.2° (Epoch: 26 January)

Event Time Altitude Azimuth Distance (km) Brightness Sun altitude
Rises 16:28:48 0° 179° (S) 4,799 10.5 -1.8°
Reaches altitude 10° 16:33:29 10° 160° (SSE) 3,782 9.7 -2.5°
Maximum altitude 16:38:50 17° 125° (SE) 3,252 9.0 -3.4°
Drops below altitude 10° 16:44:05 10° 90° (E) 3,714 9.0 -4.3°
Enters shadow 16:46:52 - 78° (ENE) 4,273 9.2 -4.7°
Sets 16:48:33 0° 72° (ENE) 4,674 - -5.0°
